Back to catalog

FENGYUN 1C DEB

AliveSSO
NORAD 30377·DEBRIS·🇨🇳 China

Launched May 10, 1999 from Taiyuan Satellite Launch Center

Loading…

Next Passes (next 24 hours)

TLE

FreshSource: Space-Track

Epoch: Sep 14, 2026, 00:54 UTC

1 30377U 99025ACQ 26257.03766088  .00000317  00000-0  23320-3 0  9999
2 30377  98.8786 273.4251 0117670 223.6239 160.6184 13.99431794   580

Track FENGYUN 1C DEB in real time with AllMySat

Download on the App Store